Location: York
(31.8935°S, 116.7682°E)
Time: 19:11:46
(UTC+08:00)

deb Explorer IX - Pass Details

Date: 01 October 2022
Orbit: 533 x 1057 km, 38.8° (Epoch: 30 November)

Event Time Altitude Azimuth Distance (km) Brightness Sun altitude
Rises 23:39:30 0° 246° (WSW) 3,002 - -54.3°
Reaches altitude 10° 23:42:01 10° 243° (WSW) 2,011 - -54.4°
Maximum altitude 23:46:35 73° 158° (SSE) 608 - -54.5°
Drops below altitude 10° 23:50:42 10° 73° (ENE) 1,815 - -54.6°
Sets 23:52:52 0° 70° (ENE) 2,682 - -54.7°
